Simultaneous Nadir Overpasses (SNOs) Predictions

Prediction of SNOs between GOES-15 and METOP-B Satellite Orbit:

Table of predicted SNOs for the next 14.0 days since TLE Epoch: 5/13/2023
Index Date Time (GOES-15) GOES-15 Lat,Lon METOP-B Lat,Lon Distance(km) Time Diff (sec)
1 05/13/2023 07:32:39 0.25,-147.00 -0.47,-150.30 375.50 80
2 05/14/2023 07:09:20 0.26,-147.45 0.76,-145.33 242.70 80
3 05/15/2023 19:30:52 -0.25,-148.15 0.12,-149.91 200.51 80
4 05/16/2023 19:07:33 -0.26,-148.60 -1.05,-144.93 417.69 80
5 05/18/2023 07:29:14 0.25,-149.28 0.17,-149.56 31.69 80
6 05/19/2023 19:48:07 -0.25,-149.97 0.69,-154.15 476.13 80
7 05/20/2023 19:24:48 -0.26,-150.41 -0.55,-149.18 141.18 80
8 05/22/2023 07:46:29 0.26,-151.09 -0.32,-153.80 309.02 80
9 05/23/2023 07:23:10 0.27,-151.52 0.86,-148.82 307.60 80
10 05/24/2023 19:44:42 -0.26,-152.20 -0.01,-153.41 138.13 80
11 05/25/2023 19:21:23 -0.28,-152.63 -1.20,-148.43 478.42 80
